Showing default

SINOD-D 3, 40977

Orbit data source: Space-Track

SINOD-D 3, 40977 is a payload satellite owned by SRI (US) in LEO that was launched on Thu, 08 Oct 2015 UTC via an ATLAS V 401 launch vehicle from the Air Force Western Test Range (AFWTR). Payloads include a variety of satellites, spacecraft, and rockets equipped with specific instruments for various scientific and technological missions. These include communications satellites like Starlink; space stations such as the ISS; scientific satellites like the Hubble; Earth observation satellites from companies like Planet Labs, Umbra, and HawkEye 360; GPS; miniature CubeSats for education and research; and military/defense satellites.

Loading next visibility...
SINOD-D 3 details
Identifier
40977, 2015-058P
Orbit
LEO
Last TLE update11 hours ago
Origin
Flag of USSRI (US)
ManufacturerSRI
MissionOperational Commercial Technology
Bus & MotorCUBESAT 2U, Unknown motor
Mass2 kg wet, 2 kg dry
Launch date (UTC)
2015-10-08 (9 years ago)
Launch vehicle
ATLAS V 401
Launch site
Air Force Western Test Range (AFWTR)
Object type
Payload
Rocket body
Debris
Shape & HBRBox, 0.2 m
Radar Cross Section0.040 m², Small (<0.1 m²)

Expand to show TLE details & history

TLE from 11 hours ago
0 SINOD-D 3
1 40977U 15058P   25018.56864805  .00010993  00000-0  92329-3 0  9994
2 40977  64.7736  76.2774 0172960 241.7226 116.6338 14.87751685 38016
Epoch: 2025-01-18T13:38Z
Definitive object data (Epoch: 2025-01-18T13:38:51.191Z)
Latitude-0.00002°
Longitude113.34803°
Altitude662.765 km
Speed7.496 km/s
True Right ascension05h 05m 06s
True Declination0° 00' 00"
Sunlit
Object was in full shadow at TLE epoch
Visualization TLE readout
Latitude-45.76083°
Longitude83.16207°
Altitude571.42 km
Speed7.602 km/s
Apparent Right ascension08h 25m 38s
Apparent Declination-78° 22' 29"
Sunlit
Object is in daylight
Visualization observer readout
Local Sidereal Time01:36:35
Azimuth164.78° S
Elevation-41.402°
Doppler factor1
Orbital elements
Apogee altitude724.286 km
Perigee altitude482.776 km
Semi-major axis6,981.668 km
Eccentricity0.017296
Inclination64.7736°
RAAN76.2774°
Arg. of periapsis241.7226°
True anomaly118.38818°
Mean anomaly116.6338°
Eccentric anomaly117.51272°
Mean motion3.72053 °/min
BSTAR0.00092329
Orbital period96.76 mins
Loading maneuver chart data...
Loading historical data...
Loading historical data...
Loading historical data...
Loading historical data...
Loading historical data...
Loading historical data...
Loading historical data...

SINOD-D 3 Visibility forecast

Observer location: undefined°, undefined

Span
Click to sort rows by Start time (UTC) header in descending order
Start Az.
Max El. time (UTC)
Max El. Az.
Max El.
End time (UTC)
End Az.
6 mins2025-01-19 04:17:22.734Z153.07° SSE2025-01-19 04:20:22.734Z115.477° SE18.161°2025-01-19 04:23:22.734Z73.159° E
8 mins2025-01-19 05:56:22.734Z232.203° WSW2025-01-19 06:00:22.734Z323.719° NNW38.756°2025-01-19 06:04:22.734Z21.843° NNE
4 mins2025-01-19 12:46:22.734Z18.853° NNE2025-01-19 12:47:22.734Z32.794° NE14.767°2025-01-19 12:50:22.734Z74.145° E
7 mins2025-01-19 14:25:22.734Z324.666° NNW2025-01-19 14:28:22.734Z191.137° SSW44.265°2025-01-19 14:32:22.734Z153.131° SSE
|